Time,TemperatureF,DewpointF,PressureIn,WindDirection,WindDirectionDegrees,WindSpeedMPH,WindSpeedGustMPH,Humidity,HourlyPrecipIn,Conditions,Clouds,dailyrainin,SoftwareType,DateUTC
2013-10-03 00:12:00,47.0,28.0,29.66,NE,44,2.0,-999.0,47,-99.99,,,-99.99,,2013-10-03 06:12:00,
2013-10-03 00:22:00,47.0,28.0,29.66,NE,44,1.0,-999.0,47,-99.99,,,-99.99,,2013-10-03 06:22:00,
2013-10-03 00:42:00,45.0,28.0,29.66,NE,44,2.0,-999.0,51,-99.99,,,-99.99,,2013-10-03 06:42:00,
2013-10-03 00:52:00,45.0,27.0,29.65,NE,44,3.0,-999.0,50,-99.99,,,-99.99,,2013-10-03 06:52:00,
2013-10-03 01:11:00,45.0,27.0,29.64,NE,43,2.0,-999.0,50,-99.99,,,-99.99,,2013-10-03 07:11:00,
2013-10-03 01:22:00,44.0,27.0,29.65,NE,43,2.0,-999.0,50,-99.99,,,-99.99,,2013-10-03 07:22:00,
2013-10-03 01:52:00,43.0,28.0,29.65,NE,43,1.0,-999.0,54,-99.99,,,-99.99,,2013-10-03 07:52:00,
2013-10-03 02:22:00,42.0,27.0,29.65,NE,43,2.0,-999.0,56,-99.99,,,-99.99,,2013-10-03 08:22:00,
2013-10-03 02:42:00,42.0,27.0,29.65,NE,43,2.0,-999.0,55,-99.99,,,-99.99,,2013-10-03 08:42:00,
2013-10-03 03:43:00,40.0,27.0,29.65,NE,43,1.0,-999.0,60,-99.99,,,-99.99,,2013-10-03 09:43:00,
2013-10-03 03:53:00,40.0,27.0,29.64,NE,43,1.0,-999.0,60,-99.99,,,-99.99,,2013-10-03 09:53:00,
2013-10-03 04:22:00,41.0,29.0,29.63,NE,43,2.0,-999.0,62,-99.99,,,-99.99,,2013-10-03 10:22:00,
2013-10-03 04:43:00,40.0,28.0,29.64,NE,43,1.0,-999.0,62,-99.99,,,-99.99,,2013-10-03 10:43:00,
2013-10-03 04:52:00,39.0,27.0,29.65,NE,43,0.0,-999.0,63,-99.99,,,-99.99,,2013-10-03 10:52:00,
2013-10-03 05:12:00,39.0,27.0,29.65,NE,43,1.0,-999.0,61,-99.99,,,-99.99,,2013-10-03 11:12:00,
2013-10-03 05:22:00,39.0,28.0,29.65,NE,43,0.0,-999.0,64,-99.99,,,-99.99,,2013-10-03 11:22:00,
2013-10-03 05:42:00,40.0,28.0,29.64,NE,43,2.0,-999.0,63,-99.99,,,-99.99,,2013-10-03 11:42:00,
2013-10-03 05:52:00,39.0,28.0,29.65,NE,43,1.0,-999.0,64,-99.99,,,-99.99,,2013-10-03 11:52:00,
2013-10-03 06:12:00,39.0,27.0,29.66,NE,43,2.0,-999.0,63,-99.99,,,-99.99,,2013-10-03 12:12:00,
2013-10-03 06:22:00,39.0,28.0,29.65,NE,43,1.0,-999.0,64,-99.99,,,-99.99,,2013-10-03 12:22:00,
2013-10-03 06:42:00,39.0,27.0,29.65,NNE,32,4.0,-999.0,63,-99.99,,,-99.99,,2013-10-03 12:42:00,
2013-10-03 06:52:00,39.0,27.0,29.66,NNE,32,2.0,-999.0,63,-99.99,,,-99.99,,2013-10-03 12:52:00,
2013-10-03 07:11:00,39.0,28.0,29.72,NE,51,2.0,-999.0,64,-99.99,,,-99.99,,2013-10-03 13:11:00,
2013-10-03 07:21:00,38.0,28.0,29.73,NNE,16,3.0,-999.0,67,-99.99,,,-99.99,,2013-10-03 13:21:00,
2013-10-03 07:42:00,38.0,27.0,29.72,NNE,16,3.0,-999.0,65,-99.99,,,-99.99,,2013-10-03 13:42:00,
2013-10-03 07:52:00,37.0,27.0,29.73,NNE,15,3.0,-999.0,66,-99.99,,,-99.99,,2013-10-03 13:52:00,
2013-10-03 08:11:00,38.0,28.0,29.79,NNE,15,2.0,-999.0,68,-99.99,,,-99.99,,2013-10-03 14:11:00,
2013-10-03 08:21:00,40.0,30.0,29.78,NNE,17,3.0,-999.0,66,-99.99,,,-99.99,,2013-10-03 14:21:00,
2013-10-03 08:42:00,43.0,30.0,29.77,East,79,2.0,-999.0,60,-99.99,,,-99.99,,2013-10-03 14:42:00,
2013-10-03 08:52:00,44.0,30.0,29.78,NE,37,4.0,-999.0,57,-99.99,,,-99.99,,2013-10-03 14:52:00,
2013-10-03 09:11:00,46.0,29.0,29.77,NNE,23,4.0,-999.0,52,-99.99,,,-99.99,,2013-10-03 15:11:00,
2013-10-03 09:22:00,49.0,30.0,29.76,NNE,23,2.0,-999.0,48,-99.99,,,-99.99,,2013-10-03 15:22:00,
2013-10-03 09:43:00,53.0,31.0,29.74,NNE,22,2.0,-999.0,43,-99.99,,,-99.99,,2013-10-03 15:43:00,
2013-10-03 09:53:00,56.0,32.0,29.72,North,11,2.0,-999.0,40,-99.99,,,-99.99,,2013-10-03 15:53:00,
2013-10-03 10:12:00,57.0,32.0,29.71,North,11,0.0,-999.0,38,-99.99,,,-99.99,,2013-10-03 16:12:00,
2013-10-03 10:23:00,60.0,32.0,29.69,NNE,14,1.0,-999.0,35,-99.99,,,-99.99,,2013-10-03 16:23:00,
2013-10-03 10:42:00,61.0,32.0,29.68,SE,131,1.0,-999.0,34,-99.99,,,-99.99,,2013-10-03 16:42:00,
2013-10-03 10:53:00,62.0,32.0,29.67,East,94,3.0,-999.0,32,-99.99,,,-99.99,,2013-10-03 16:53:00,
2013-10-03 11:12:00,63.0,32.0,29.66,East,81,3.0,-999.0,31,-99.99,,,-99.99,,2013-10-03 17:12:00,
2013-10-03 11:22:00,63.0,32.0,29.67,ENE,63,2.0,-999.0,31,-99.99,,,-99.99,,2013-10-03 17:22:00,
2013-10-03 11:42:00,65.0,33.0,29.65,ENE,77,3.0,-999.0,30,-99.99,,,-99.99,,2013-10-03 17:42:00,
2013-10-03 11:52:00,65.0,30.0,29.65,SE,131,2.0,-999.0,27,-99.99,,,-99.99,,2013-10-03 17:52:00,
2013-10-03 12:12:00,66.0,31.0,29.66,SW,229,1.0,-999.0,27,-99.99,,,-99.99,,2013-10-03 18:12:00,
2013-10-03 12:22:00,66.0,31.0,29.65,SW,236,2.0,-999.0,27,-99.99,,,-99.99,,2013-10-03 18:22:00,
2013-10-03 12:42:00,67.0,30.0,29.64,SSE,153,1.0,-999.0,25,-99.99,,,-99.99,,2013-10-03 18:42:00,
2013-10-03 12:52:00,68.0,32.0,29.62,SSW,197,2.0,-999.0,26,-99.99,,,-99.99,,2013-10-03 18:52:00,
2013-10-03 13:11:00,68.0,32.0,29.62,South,187,3.0,-999.0,26,-99.99,,,-99.99,,2013-10-03 19:11:00,
2013-10-03 13:21:00,68.0,31.0,29.61,South,176,3.0,-999.0,25,-99.99,,,-99.99,,2013-10-03 19:21:00,
2013-10-03 13:41:00,68.0,31.0,29.59,West,271,4.0,-999.0,25,-99.99,,,-99.99,,2013-10-03 19:41:00,
2013-10-03 13:52:00,69.0,32.0,29.58,SW,226,3.0,-999.0,25,-99.99,,,-99.99,,2013-10-03 19:52:00,
2013-10-03 14:11:00,70.0,32.0,29.58,SSE,149,5.0,-999.0,24,-99.99,,,-99.99,,2013-10-03 20:11:00,
2013-10-03 14:21:00,69.0,30.0,29.57,SE,136,4.0,-999.0,23,-99.99,,,-99.99,,2013-10-03 20:21:00,
2013-10-03 14:42:00,70.0,30.0,29.57,SE,127,6.0,-999.0,23,-99.99,,,-99.99,,2013-10-03 20:42:00,
2013-10-03 14:52:00,72.0,31.0,29.55,SSE,158,3.0,-999.0,22,-99.99,,,-99.99,,2013-10-03 20:52:00,
2013-10-03 15:12:00,70.0,30.0,29.54,ENE,77,3.0,-999.0,23,-99.99,,,-99.99,,2013-10-03 21:12:00,
2013-10-03 15:21:00,72.0,32.0,29.53,SSW,196,5.0,-999.0,23,-99.99,,,-99.99,,2013-10-03 21:21:00,
2013-10-03 15:43:00,72.0,31.0,29.51,SSW,193,3.0,-999.0,22,-99.99,,,-99.99,,2013-10-03 21:43:00,
2013-10-03 15:54:00,72.0,32.0,29.50,SE,143,6.0,-999.0,23,-99.99,,,-99.99,,2013-10-03 21:54:00,
2013-10-03 16:13:00,72.0,32.0,29.50,SE,142,4.0,-999.0,23,-99.99,,,-99.99,,2013-10-03 22:13:00,
2013-10-03 16:23:00,73.0,30.0,29.49,SSE,150,5.0,-999.0,20,-99.99,,,-99.99,,2013-10-03 22:23:00,
2013-10-03 16:43:00,73.0,30.0,29.48,South,171,3.0,-999.0,20,-99.99,,,-99.99,,2013-10-03 22:43:00,
2013-10-03 16:54:00,73.0,27.0,29.48,SW,218,3.0,-999.0,18,-99.99,,,-99.99,,2013-10-03 22:54:00,
2013-10-03 17:12:00,73.0,27.0,29.47,SW,226,8.0,-999.0,18,-99.99,,,-99.99,,2013-10-03 23:12:00,
2013-10-03 17:22:00,74.0,26.0,29.47,SSW,207,8.0,-999.0,17,-99.99,,,-99.99,,2013-10-03 23:22:00,
2013-10-03 17:43:00,74.0,28.0,29.47,WSW,255,4.0,-999.0,18,-99.99,,,-99.99,,2013-10-03 23:43:00,
2013-10-03 17:52:00,71.0,27.0,29.47,WSW,250,7.0,-999.0,19,-99.99,,,-99.99,,2013-10-03 23:52:00,
2013-10-03 18:12:00,72.0,27.0,29.46,WSW,241,11.0,-999.0,19,-99.99,,,-99.99,,2013-10-04 00:12:00,
2013-10-03 18:21:00,71.0,28.0,29.46,West,264,8.0,-999.0,20,-99.99,,,-99.99,,2013-10-04 00:21:00,
2013-10-03 18:42:00,72.0,29.0,29.45,SSW,207,7.0,-999.0,20,-99.99,,,-99.99,,2013-10-04 00:42:00,
2013-10-03 18:52:00,71.0,25.0,29.45,South,181,8.0,-999.0,18,-99.99,,,-99.99,,2013-10-04 00:52:00,
2013-10-03 19:12:00,70.0,26.0,29.47,SW,231,5.0,-999.0,19,-99.99,,,-99.99,,2013-10-04 01:12:00,
2013-10-03 19:21:00,69.0,25.0,29.48,SW,229,8.0,-999.0,19,-99.99,,,-99.99,,2013-10-04 01:21:00,
2013-10-03 19:42:00,69.0,24.0,29.47,WSW,239,8.0,-999.0,18,-99.99,,,-99.99,,2013-10-04 01:42:00,
2013-10-03 19:52:00,67.0,25.0,29.49,SW,225,5.0,-999.0,20,-99.99,,,-99.99,,2013-10-04 01:52:00,
2013-10-03 20:12:00,66.0,23.0,29.47,SW,231,5.0,-999.0,19,-99.99,,,-99.99,,2013-10-04 02:12:00,
2013-10-03 20:22:00,66.0,24.0,29.48,SW,229,3.0,-999.0,20,-99.99,,,-99.99,,2013-10-04 02:22:00,
2013-10-03 20:42:00,66.0,24.0,29.48,SW,217,8.0,-999.0,20,-99.99,,,-99.99,,2013-10-04 02:42:00,
2013-10-03 20:52:00,66.0,25.0,29.47,SW,221,7.0,-999.0,21,-99.99,,,-99.99,,2013-10-04 02:52:00,
2013-10-03 21:12:00,67.0,25.0,29.41,SW,236,11.0,-999.0,20,-99.99,,,-99.99,,2013-10-04 03:12:00,
2013-10-03 21:22:00,66.0,25.0,29.41,SSW,204,8.0,-999.0,21,-99.99,,,-99.99,,2013-10-04 03:22:00,
2013-10-03 21:44:00,65.0,24.0,29.43,SSW,199,6.0,-999.0,21,-99.99,,,-99.99,,2013-10-04 03:44:00,
2013-10-03 21:59:00,64.0,24.0,29.43,SW,235,8.0,-999.0,22,-99.99,,,-99.99,,2013-10-04 03:59:00,
2013-10-03 23:06:00,62.0,24.0,29.40,SW,226,6.0,-999.0,23,-99.99,,,-99.99,,2013-10-04 05:06:00,
2013-10-03 23:16:00,63.0,24.0,29.39,SW,223,10.0,-999.0,22,-99.99,,,-99.99,,2013-10-04 05:16:00,
2013-10-03 23:26:00,63.0,24.0,29.39,WSW,240,11.0,-999.0,22,-99.99,,,-99.99,,2013-10-04 05:26:00,
2013-10-03 23:57:00,59.0,28.0,29.41,West,262,14.0,-999.0,31,-99.99,,,-99.99,,2013-10-04 05:57:00,